Location: Tamazert
(32.6352°N, 5.2072°W)
Time: 03:00:53
(UTC+00:00)

Tiros 1 despin weight - Pass Details

Date: 10 October 2022
Orbit: 590 x 637 km, 48.2° (Epoch: 30 November)

Event Time Altitude Azimuth Distance (km) Brightness Sun altitude
Rises 15:15:41 0° 294° (WNW) 2,829 ? 30.5°
Reaches altitude 10° 15:19:21 10° 325° (NW) 1,938 ? 29.8°
Maximum altitude 15:21:10 12° 349° (N) 1,801 ? 29.5°
Drops below altitude 10° 15:22:59 10° 14° (NNE) 1,950 ? 29.1°
Sets 15:26:43 0° 45° (NE) 2,869 ? 28.5°
